Kaneohe, HI

1:15 AM HST on February 12, 2016 (GMT -1000)
Kaneohe Bay Marine Corps Air Facility

Weather History for PHNG - November, 2013

Change the Weather History Date:

Thursday, November 28, 2013

  Actual Average Record
Temperature  
Mean Temperature 77 °F -  
Max Temperature 83 °F 77 °F 83 °F (2013)
Min Temperature 71 °F 69 °F 32 °F (2010)
Cooling Degree Days 12    
Growing Degree Days 27 (Base 50)    
Moisture  
Dew Point 66 °F    
Average Humidity 70    
Maximum Humidity 82    
Minimum Humidity 54    
Precipitation  
Precipitation 0.00 in - - ()
Sea Level Pressure  
Sea Level Pressure 29.97 in    
Wind  
Wind Speed 5 mph (ESE)    
Max Wind Speed 10 mph    
Max Gust Speed 17 mph    
Visibility 8 miles    
Events Rain    
Averages and records for this station are not official NWS values.
T = Trace of Precipitation, MM = Missing Value Source: NWS Daily Summary

Daily Weather History Graph

Daily Weather History Graph

Search for Another Location

Airport or City:

Trip Planner

Search our weather history database for the weather conditions in past years. The results will help you decide how hot, cold, wet, or windy it might be!

Date:

Astronomy

Nov. 28, 2013 Rise Set
Actual Time 6:50 AM HST 5:47 PM HST
Civil Twilight 6:26 AM HST 6:11 PM HST
Nautical Twilight 5:59 AM HST 6:38 PM HST
Astronomical Twilight 5:32 AM HST 7:05 PM HST
Moon 2:35 AM HST (11/28) 2:36 PM HST (11/28)
Length of Visible Light 11h 44m
Length of Day
10h 56m
Waning Crescent, 21% of the Moon is Illuminated
Nov 28
Waning Crescent
Dec 2
New
Dec 9
First Quarter
Dec 16
Full
Dec 25
Last Quarter

Hourly Weather History & Observations

Time (HST) Temp. Heat Index Dew Point Humidity Pressure Visibility Wind Dir Wind Speed Gust Speed Precip Events Conditions
12:57 AM 71.6 °F - 64.9 °F 79% 30.00 in 9.0 mi East 5.8 mph - N/A   Clear
1:57 AM 71.6 °F - 64.9 °F 79% 29.98 in 9.0 mi ESE 3.5 mph - N/A   Partly Cloudy
2:57 AM 71.6 °F - 66.0 °F 82% 29.97 in 8.0 mi East 4.6 mph - 0.00 in   Scattered Clouds
3:57 AM 73.4 °F - 64.9 °F 75% 29.96 in 6.0 mi Variable 3.5 mph - 0.00 in Rain Light Rain
4:57 AM 73.4 °F - 66.0 °F 78% 29.96 in 8.0 mi East 6.9 mph - 0.00 in   Scattered Clouds
5:57 AM 73.4 °F - 66.9 °F 80% 29.97 in 10.0 mi Calm Calm - N/A   Overcast
6:57 AM 73.4 °F - 64.9 °F 75% 29.98 in 8.0 mi Calm Calm - 0.00 in   Overcast
7:27 AM 73.4 °F - 66.2 °F 78% 30.00 in 6.2 mi Calm Calm - N/A   Overcast
7:37 AM 73.4 °F - 66.2 °F 78% 30.00 in 6.2 mi WSW 3.5 mph - N/A   Overcast
7:57 AM 73.4 °F - 66.0 °F 78% 29.99 in 9.0 mi West 3.5 mph - N/A   Overcast
8:57 AM 75.2 °F - 69.1 °F 81% 30.00 in 7.0 mi West 3.5 mph - N/A   Scattered Clouds
9:57 AM 77.0 °F - 69.1 °F 76% 30.00 in 9.0 mi SE 5.8 mph - N/A   Clear
10:57 AM 81.0 °F 83.0 °F 66.0 °F 60% 29.98 in 7.0 mi SE 10.4 mph - N/A   Scattered Clouds
11:57 AM 80.6 °F 82.9 °F 66.9 °F 63% 29.96 in 9.0 mi Variable 6.9 mph - N/A   Clear
12:57 PM 81.3 °F 83.5 °F 66.0 °F 60% 29.94 in 8.0 mi Variable 6.9 mph - N/A   Scattered Clouds
1:57 PM 83.1 °F 85.2 °F 66.0 °F 56% 29.91 in 10.0 mi East 8.1 mph - N/A   Scattered Clouds
2:57 PM 82.4 °F 83.9 °F 64.0 °F 54% 29.91 in 8.0 mi East 8.1 mph - N/A   Clear
3:57 PM 82.4 °F 84.4 °F 66.0 °F 57% 29.91 in 8.0 mi SE 8.1 mph - N/A   Clear
4:57 PM 81.3 °F 82.9 °F 64.0 °F 56% 29.93 in 7.0 mi ESE 6.9 mph - N/A   Scattered Clouds
5:57 PM 80.8 °F 82.0 °F 63.0 °F 54% 29.94 in 7.0 mi East 4.6 mph - N/A   Scattered Clouds
6:48 PM 77.0 °F - 66.2 °F 69% 29.96 in 6.2 mi East 5.8 mph - N/A   Mostly Cloudy
6:57 PM 77.5 °F - 66.0 °F 68% 29.95 in 9.0 mi East 5.8 mph - N/A   Mostly Cloudy
7:04 PM 77.0 °F - 66.2 °F 69% 29.97 in 6.2 mi East 3.5 mph - N/A   Scattered Clouds
7:57 PM 77.5 °F - 66.0 °F 68% 29.97 in 9.0 mi East 6.9 mph - N/A   Mostly Cloudy
8:57 PM 75.2 °F - 66.0 °F 73% 29.98 in 9.0 mi ESE 9.2 mph - N/A   Mostly Cloudy
9:57 PM 75.2 °F - 66.0 °F 73% 29.99 in 9.0 mi ESE 9.2 mph - N/A   Clear
10:57 PM 74.3 °F - 66.0 °F 75% 29.98 in 9.0 mi ESE 8.1 mph 17.3 mph N/A   Partly Cloudy
11:57 PM 75.2 °F - 66.0 °F 73% 29.97 in 9.0 mi ESE 8.1 mph 16.1 mph N/A   Mostly Cloudy